When you browse on this site, cookies collect data to enhance your experience and personalize the content and advertising you see.
Visit our Privacy Policy to learn more. By continuing to use the site, you agree to this use of cookies and data.
EN

Hourly Weather Subash

Today, 23 September, Wednesday

Time Temperature Precipitation Wind Pressure Humidity
00:00 +13°C° 0.1 mm 6 mps 741 mmHg 86%
01:00 +13°C° 0 mm 6 mps 741 mmHg 86%
02:00 +13°C° 0 mm 6 mps 742 mmHg 86%
03:00 +11°C° 0 mm 6 mps 742 mmHg 85%
04:00 +11°C° 0 mm 6 mps 743 mmHg 88%
05:00 +10°C° 0 mm 6 mps 743 mmHg 90%
06:00 +9°C° 0 mm 6 mps 743 mmHg 93%
07:00 +10°C° 0 mm 6 mps 744 mmHg 88%
08:00 +11°C° 0 mm 7 mps 744 mmHg 84%
09:00 +12°C° 0 mm 7 mps 745 mmHg 79%
10:00 +12°C° 0.1 mm 7 mps 745 mmHg 71%
11:00 +14°C° 0.1 mm 7 mps 746 mmHg 63%
12:00 +14°C° 0.1 mm 7 mps 746 mmHg 54%
13:00 +14°C° 0 mm 7 mps 747 mmHg 53%
14:00 +14°C° 0 mm 6 mps 748 mmHg 52%
15:00 +14°C° 0 mm 6 mps 748 mmHg 51%
16:00 +12°C° 0 mm 5 mps 749 mmHg 56%
17:00 +11°C° 0 mm 4 mps 749 mmHg 62%
18:00 +9°C° 0 mm 3 mps 750 mmHg 67%
19:00 +8°C° 0 mm 3 mps 750 mmHg 70%
20:00 +8°C° 0 mm 3 mps 751 mmHg 72%
21:00 +7°C° 0 mm 2 mps 752 mmHg 74%
22:00 +7°C° 0 mm 2 mps 752 mmHg 76%
23:00 +6°C° 0 mm 2 mps 752 mmHg 78%

Tomorrow, 24 September, Thursday

Time Temperature Precipitation Wind Pressure Humidity
00:00 +7°C° 0 mm 1 mps 753 mmHg 79%
01:00 +7°C° 0 mm 1 mps 753 mmHg 80%
02:00 +6°C° 0 mm 1 mps 754 mmHg 82%
03:00 +6°C° 0 mm 1 mps 754 mmHg 83%
04:00 +5°C° 0 mm 0 mps 755 mmHg 83%
05:00 +5°C° 0 mm 0 mps 755 mmHg 82%
06:00 +5°C° 0 mm 0 mps 755 mmHg 82%
07:00 +7°C° 0 mm 0 mps 756 mmHg 76%
08:00 +9°C° 0 mm 0 mps 756 mmHg 69%
09:00 +11°C° 0 mm 1 mps 757 mmHg 63%
10:00 +12°C° 0 mm 1 mps 757 mmHg 59%
11:00 +13°C° 0 mm 1 mps 756 mmHg 55%
12:00 +14°C° 0 mm 1 mps 756 mmHg 50%
13:00 +14°C° 0 mm 1 mps 757 mmHg 50%
14:00 +14°C° 0 mm 1 mps 757 mmHg 50%
15:00 +15°C° 0 mm 1 mps 757 mmHg 50%
16:00 +13°C° 0 mm 1 mps 757 mmHg 55%
17:00 +12°C° 0 mm 2 mps 757 mmHg 59%
18:00 +9°C° 0 mm 2 mps 757 mmHg 64%
19:00 +9°C° 0 mm 2 mps 757 mmHg 65%
20:00 +8°C° 0 mm 2 mps 758 mmHg 66%
21:00 +8°C° 0 mm 2 mps 758 mmHg 68%
22:00 +8°C° 0 mm 2 mps 758 mmHg 69%
23:00 +8°C° 0 mm 2 mps 758 mmHg 70%

Day after tomorrow, 25 September, Friday

Time Temperature Precipitation Wind Pressure Humidity
00:00 +7°C° 0 mm 2 mps 758 mmHg 71%
01:00 +7°C° 0 mm 2 mps 758 mmHg 72%
02:00 +7°C° 0 mm 2 mps 758 mmHg 73%
03:00 +7°C° 0 mm 2 mps 759 mmHg 74%
04:00 +7°C° 0 mm 2 mps 759 mmHg 76%
05:00 +6°C° 0 mm 2 mps 759 mmHg 77%
06:00 +6°C° 0 mm 2 mps 759 mmHg 78%
07:00 +8°C° 0 mm 2 mps 759 mmHg 73%
08:00 +10°C° 0 mm 3 mps 759 mmHg 69%
09:00 +11°C° 0 mm 3 mps 759 mmHg 64%
10:00 +13°C° 0 mm 3 mps 759 mmHg 61%
11:00 +14°C° 0 mm 3 mps 759 mmHg 57%
12:00 +16°C° 0 mm 3 mps 759 mmHg 54%
13:00 +16°C° 0 mm 3 mps 759 mmHg 55%
14:00 +16°C° 0 mm 3 mps 759 mmHg 55%
15:00 +16°C° 0 mm 2 mps 759 mmHg 56%
16:00 +15°C° 0 mm 2 mps 759 mmHg 61%
17:00 +13°C° 0 mm 2 mps 759 mmHg 66%
18:00 +12°C° 0 mm 1 mps 758 mmHg 70%
19:00 +11°C° 0 mm 1 mps 759 mmHg 71%
20:00 +10°C° 0 mm 2 mps 759 mmHg 71%
21:00 +10°C° 0 mm 2 mps 759 mmHg 72%
22:00 +9°C° 0 mm 2 mps 759 mmHg 72%
23:00 +9°C° 0 mm 2 mps 759 mmHg 73%

26 September, Saturday

Time Temperature Precipitation Wind Pressure Humidity
00:00 +9°C° 0 mm 2 mps 759 mmHg 73%
01:00 +8°C° 0 mm 2 mps 759 mmHg 74%
02:00 +8°C° 0 mm 2 mps 759 mmHg 75%
03:00 +8°C° 0 mm 2 mps 759 mmHg 76%
04:00 +7°C° 0 mm 2 mps 759 mmHg 75%
05:00 +7°C° 0 mm 2 mps 759 mmHg 75%
06:00 +7°C° 0 mm 2 mps 759 mmHg 74%
07:00 +8°C° 0 mm 2 mps 760 mmHg 70%
08:00 +10°C° 0 mm 2 mps 760 mmHg 66%
09:00 +11°C° 0 mm 3 mps 760 mmHg 62%
10:00 +13°C° 0 mm 3 mps 760 mmHg 60%
11:00 +14°C° 0 mm 3 mps 760 mmHg 57%
12:00 +16°C° 0 mm 3 mps 760 mmHg 54%
13:00 +16°C° 0 mm 2 mps 760 mmHg 54%
14:00 +16°C° 0 mm 2 mps 760 mmHg 54%
15:00 +16°C° 0 mm 2 mps 760 mmHg 55%
16:00 +15°C° 0 mm 2 mps 760 mmHg 59%
17:00 +14°C° 0 mm 2 mps 760 mmHg 63%
18:00 +12°C° 0 mm 2 mps 760 mmHg 67%
19:00 +12°C° 0 mm 2 mps 760 mmHg 68%
20:00 +10°C° 0 mm 2 mps 761 mmHg 68%
21:00 +10°C° 0 mm 2 mps 761 mmHg 69%
22:00 +10°C° 0 mm 2 mps 761 mmHg 70%
23:00 +10°C° 0 mm 2 mps 761 mmHg 70%

27 September, Sunday

Time Temperature Precipitation Wind Pressure Humidity
00:00 +9°C° 0 mm 2 mps 761 mmHg 71%
01:00 +9°C° 0 mm 2 mps 761 mmHg 72%
02:00 +9°C° 0 mm 2 mps 761 mmHg 72%
03:00 +9°C° 0 mm 2 mps 761 mmHg 72%
04:00 +9°C° 0 mm 2 mps 761 mmHg 73%
05:00 +8°C° 0 mm 2 mps 762 mmHg 73%
06:00 +8°C° 0 mm 2 mps 762 mmHg 73%
07:00 +10°C° 0 mm 2 mps 762 mmHg 69%
08:00 +12°C° 0 mm 2 mps 762 mmHg 65%
09:00 +13°C° 0 mm 2 mps 762 mmHg 61%
10:00 +14°C° 0 mm 2 mps 762 mmHg 57%
11:00 +15°C° 0 mm 2 mps 762 mmHg 54%
12:00 +16°C° 0 mm 2 mps 762 mmHg 51%
13:00 +16°C° 0 mm 2 mps 762 mmHg 52%
14:00 +16°C° 0 mm 2 mps 762 mmHg 52%
15:00 +16°C° 0 mm 1 mps 762 mmHg 53%
16:00 +15°C° 0 mm 1 mps 762 mmHg 57%
17:00 +14°C° 0 mm 1 mps 762 mmHg 61%
18:00 +12°C° 0 mm 1 mps 762 mmHg 65%
19:00 +12°C° 0 mm 1 mps 762 mmHg 66%
20:00 +11°C° 0 mm 1 mps 762 mmHg 68%
21:00 +11°C° 0 mm 1 mps 762 mmHg 69%
22:00 +11°C° 0 mm 1 mps 762 mmHg 70%
23:00 +11°C° 0 mm 1 mps 762 mmHg 70%

28 September, Monday

Time Temperature Precipitation Wind Pressure Humidity
00:00 +10°C° 0 mm 1 mps 762 mmHg 71%
01:00 +10°C° 0 mm 1 mps 762 mmHg 72%
02:00 +10°C° 0 mm 1 mps 762 mmHg 73%
03:00 +10°C° 0 mm 1 mps 762 mmHg 73%
04:00 +10°C° 0 mm 1 mps 762 mmHg 74%
05:00 +9°C° 0 mm 1 mps 762 mmHg 75%
06:00 +9°C° 0 mm 1 mps 762 mmHg 76%
07:00 +11°C° 0 mm 1 mps 762 mmHg 71%
08:00 +12°C° 0 mm 1 mps 762 mmHg 67%
09:00 +14°C° 0 mm 1 mps 762 mmHg 62%
10:00 +15°C° 0 mm 1 mps 762 mmHg 59%
11:00 +16°C° 0 mm 1 mps 762 mmHg 56%
12:00 +17°C° 0 mm 2 mps 762 mmHg 53%
13:00 +18°C° 0 mm 1 mps 762 mmHg 53%
14:00 +18°C° 0 mm 1 mps 762 mmHg 54%
15:00 +18°C° 0 mm 1 mps 762 mmHg 54%
16:00 +15°C° 0 mm 1 mps 762 mmHg 59%
17:00 +14°C° 0 mm 1 mps 762 mmHg 64%
18:00 +13°C° 0 mm 1 mps 761 mmHg 68%
19:00 +12°C° 0 mm 1 mps 761 mmHg 70%
20:00 +12°C° 0 mm 1 mps 762 mmHg 71%
21:00 +12°C° 0 mm 2 mps 762 mmHg 72%
22:00 +10°C° 0 mm 2 mps 762 mmHg 73%
23:00 +11°C° 0 mm 1 mps 762 mmHg 74%
Show more